Regional Weather Roundup
Issued by NWS

Home | Current Version | Previous Version | Text Only | Print | Product List | Glossary Off
Versions: 1 2 3 4 5 6 7 8 9 10 11 12 13 14 15 16 17 18 19 20 21 22 23 24 25 26 27 28 29 30 31 32 33 34 35 36 37 38 39 40 41 42 43 44 45 46 47 48 49 50

000
ASUS43 KBIS 261310
RWRND

NORTH DAKOTA REGIONAL WEATHER ROUNDUP
NATIONAL WEATHER SERVICE BISMARCK ND
800 AM CDT SAT JUL 26 2014

NOTE: "FAIR" INDICATES FEW OR NO CLOUDS BELOW 12,000 FEET WITH NO
SIGNIFICANT WEATHER AND/OR OBSTRUCTIONS TO VISIBILITY.


NDZ001>003-009>011-017-261400-
NORTHWEST NORTH DAKOTA

CITY           SKY/WX    TMP DP  RH WIND       PRES   REMARKS
WILLISTON      SUNNY     60  50  69 W20       29.89R
MINOT          SUNNY     62  51  67 SW18G28   29.80R
MINOT AFB      MOSUNNY   58  54  84 W15G23    29.79R
$$

NDZ018>021-031>035-040>046-261400-
SOUTHWEST NORTH DAKOTA

CITY           SKY/WX    TMP DP  RH WIND       PRES   REMARKS
BISMARCK       SUNNY     62  50  64 W15       29.89R
DICKINSON      SUNNY     59  48  67 W12       29.94R
GARRISON         N/A     59  54  83 W12       29.86R
HETTINGER ARPT SUNNY     59  47  64 NW8       29.98R
$$

NDZ004>008-012>016-024-026-027-054-261400-
NORTHEAST NORTH DAKOTA

CITY           SKY/WX    TMP DP  RH WIND       PRES   REMARKS
GRAND FORKS    SUNNY     64  57  78 S7        29.74R
GRND FRKS AFB  SUNNY     68  60  74 SW10      29.74S
DEVILS LAKE    SUNNY     64  54  68 W18       29.77R
$$

NDZ022-023-025-028>030-036>039-047>053-261400-
SOUTHEAST NORTH DAKOTA

CITY           SKY/WX    TMP DP  RH WIND       PRES   REMARKS
FARGO          SUNNY     64  58  80 S7        29.78R
JAMESTOWN      SUNNY     68  62  81 W13       29.82R
$$




USA.gov is the U.S. government's official web portal to all federal, state and local government web resources and services.